User: anonymous   Login
Location: Caltech
(34.1382°N, 118.1253°W)
Time: 09:34:20
(UTC-07:00)
Language:

PAYLOAD A - Orbit

View from above orbital plane
View from above orbital plane
View from above satellite
View from above satellite

Ground track
Ground track

The orbit data is extracted from the following two-line orbital elements,

1 27840U 03031A   15182.21842663  .00000011  00000-0  16490-4 0  9993
2 27840 098.2068 200.0815 0099501 120.1189 306.8796 14.38811032630210
Epoch (UTC): 01 July 2015 05:14:32
Eccentricity: 0.0099501
inclination: 98.2068°
perigee height: 691 km
apogee height: 833 km
right ascension of ascending node: 200.0815°
argument of perigee: 120.1189°
revolutions per day: 14.38811032
mean anomaly at epoch: 306.8796°
orbit number at epoch: 63021

The dashed part of the orbit path shows where the satellite is in the earth's shadow,  

DLR